SL-14 DEB, 45302

Orbit data source: Space-Track

SL-14 DEB, 45302 is space debris in LEO originally from a launch on Thu, 15 Aug 1991 UTC launched from the Plesetsk Missile And Space Complex (PKMTR). Debris objects in space refer to the collection of defunct objects orbiting the Earth. Examples of debris include non-operational satellites, rocket bodies, and fragments generated from explosions, collisions, or faulty payload assembly.

Loading next visibility...
Identifier
45302, 1991-056AQ
Orbit
LEO
Country
Flag of CISCIS
Related business
Manufacturer
Unknown
Mission
Spacecraft
Bus & Motor
Unknown
Mass
Unknown
Launch date (UTC)
1991-08-15 (34 years ago)
Launch vehicle
Unknown
Launch site
Plesetsk Missile And Space Complex (PKMTR)
Object type
Payload
Rocket body
Debris
Shape & HBR
Unknown shape, 0.1 m
Radar Cross Section
Small (<0.1 m²)

Expand to show TLE details & history
Last TLE update: 4 hours ago

TLE from 4 hours ago
0 SL-14 DEB
1 45302U 91056AQ  26038.33227569  .00020051  00000-0  23138-1 0  9997
2 45302  82.5954 168.5816 0150958 182.5590 177.4805 13.64338496293285
Epoch: 2026-02-07T07:58Z
TLE epoch observation values (Epoch: 2026-02-07T07:58:28.619Z)
Latitude
-0.00007°
Longitude
-88.49497°
Altitude
1,134.44 km
Speed
7.23 km/s
True Right ascension
11h 14m 19s
True Declination
0° 00' 00"
Sunlit
Object was in full shadow at epoch
Visualization orbit readout
Latitude
Unknown
Longitude
Unknown
Altitude
Unknown
Speed
Unknown
Apparent Right ascension
Unknown
Apparent Declination
Unknown
Sunlit
N/A
Visualization observer readout
Local Sidereal Time
13:50:15
Azimuth
Unknown
Elevation
Unknown
Doppler factor
Unknown
Orbital elements
Apogee altitude
1,128.781 km
Perigee altitude
905.505 km
Semi-major axis
7,395.28 km
Eccentricity
0.0151
Inclination
82.5954°
RAAN
168.5816°
Arg. of periapsis
182.559°
True anomaly
177.55514°
Mean anomaly
177.4805°
Eccentric anomaly
177.51796°
Mean motion
3.4128 °/min
Orbital period
105.49 mins
BSTAR
0.023138
Loading maneuver chart data...
Computing Atmospheric mass density...
Loading historical data...
Loading historical data...
Loading historical data...
Loading historical data...
Loading historical data...
Loading historical data...
Loading historical data...

Documentation

Showing up to 5 results
|